Wind_Speed
32 28 26 26 26 26 26 25 23 22 20 20 19 18 17 16 15 15 12 11 10 9 10 9 8 8 8 8 8 9 9 9 9 10 9 10 10 11 12 12 13 13 13 13
33 28 27 27 26 26 27 27 25 23 22 22 20 20 19 18 17 16 14 13 13 11 11 10 9 9 10 10 10 10 11 11 11 11 10 11 11 12 13 14 14 14 15 15
34 30 28 30 28 26 27 27 27 27 25 24 22 20 20 20 20 19 17 16 14 14 14 12 12 12 12 11 11 12 12 12 11 11 12 12 13 14 15 15 16 16 16 16
34 31 33 31 28 26 27 27 27 28 27 25 24 22 21 23 22 21 20 18 17 16 16 15 14 14 14 13 13 13 13 12 12 12 13 14 14 15 17 17 17 17 17 17
34 31 33 30 29 28 28 28 28 28 28 26 25 24 23 24 24 23 22 20 20 19 19 18 17 16 16 15 15 15 14 14 14 14 15 16 17 17 18 19 19 19 19 18
36 32 32 31 29 29 29 30 29 28 27 26 26 26 25 24 24 24 24 23 22 22 21 20 19 18 18 18 17 16 16 16 16 17 18 19 19 20 21 21 21 20 21 21
37 34 33 30 29 29 32 34 30 29 29 27 28 27 26 26 25 25 26 26 25 24 23 21 21 20 19 19 18 18 18 18 19 20 20 21 22 22 22 23 23 22 22 23
37 35 34 31 29 31 32 31 30 30 30 30 28 28 28 27 26 26 26 26 25 24 23 23 22 22 21 21 20 20 20 21 22 23 23 23 23 24 24 24 24 24 24 24
37 37 37 34 32 32 32 31 31 32 32 31 31 31 31 30 29 28 28 28 27 26 25 25 25 24 23 23 23 23 23 23 24 25 25 25 25 26 27 27 26 26 27 26
37 38 36 36 33 33 33 33 32 31 32 32 32 32 31 32 32 32 31 30 29 29 28 27 26 26 26 26 26 26 26 26 26 26 27 27 28 28 29 29 29 28 29 29
37 38 37 36 34 33 33 33 33 33 33 32 32 32 32 33 33 32 31 31 30 30 30 29 29 28 28 28 28 28 28 29 29 28 28 29 30 30 30 31 30 30 31 31
37 38 38 37 36 33 32 33 34 34 33 33 34 33 33 33 33 33 32 31 31 31 31 31 31 30 30 30 30 31 31 31 31 31 31 31 32 33 33 33 32 31 31 32
35 37 37 37 36 35 33 33 34 34 33 33 34 34 32 31 31 32 32 32 32 32 32 32 32 32 31 31 31 32 33 33 34 33 33 33 34 34 34 34 34 34 34 35
34 35 35 35 35 35 34 33 33 34 34 34 35 33 32 31 30 31 32 32 33 33 33 34 34 34 33 33 33 33 33 34 34 35 35 35 36 36 36 36 35 36 36 36
34 34 35 35 36 35 34 34 33 33 34 34 34 34 33 33 32 32 33 33 33 34 34 34 35 35 35 36 36 35 35 36 36 37 37 37 38 38 37 37 37 37 37 37
33 33 33 34 34 34 34 34 33 33 34 34 34 32 32 33 33 33 34 33 34 34 34 34 35 35 36 36 37 37 37 38 38 39 39 40 39 39 39 39 38 38 38 38
31 30 31 32 33 33 33 33 33 32 31 32 32 32 32 33 33 33 34 34 34 35 36 36 35 35 36 37 38 39 40 40 40 40 40 40 39 39 40 40 40 40 39 39
30 30 31 31 31 31 31 30 30 31 31 32 32 33 33 32 32 33 34 34 34 34 34 35 35 36 36 36 37 38 39 40 40 41 41 40 40 40 40 40 40 41 40 39
30 30 30 29 30 30 30 29 30 30 30 31 32 33 34 33 32 32 33 34 34 34 34 35 35 35 35 36 38 38 39 40 41 41 42 42 41 41 40 40 41 41 41 41
30 29 28 28 29 29 30 30 30 31 31 31 31 32 33 33 31 31 32 33 33 33 33 33 33 34 35 36 37 38 39 39 40 40 40 41 41 40 40 40 40 41 41 41
29 30 29 28 28 28 29 28 29 30 30 30 30 31 31 31 32 32 32 33 33 32 33 33 34 34 35 36 37 38 39 39 40 39 40 39 39 39 38 39 40 41 42 42
29 30 30 29 29 29 29 30 30 30 30 30 30 30 30 30 30 31 32 32 32 33 33 33 34 34 36 36 37 38 39 39 39 39 39 39 39 39 38 40 41 41 41 42
27 28 29 29 29 29 30 30 30 30 29 29 29 29 30 30 30 31 31 32 32 33 33 34 35 36 37 37 37 38 38 38 37 37 38 38 38 39 41 41 41 40 40 41
25 26 27 27 27 28 28 29 29 28 28 29 29 29 30 31 31 32 32 33 33 34 35 35 36 37 37 37 37 37 36 36 36 36 37 37 37 39 40 40 40 41 41 40
24 24 25 25 27 26 26 27 27 27 28 29 29 30 30 30 31 32 32 32 33 34 35 35 36 36 36 36 36 36 36 36 35 35 35 36 36 37 39 39 40 38 38 38
22 23 23 24 24 25 25 26 26 27 28 28 28 27 27 28 29 30 31 31 32 33 34 35 35 36 36 36 35 35 35 34 35 35 36 37 38 38 39 39 38 39 38 37
21 21 22 23 24 24 23 24 26 26 27 27 27 27 27 27 28 28 29 30 31 32 33 34 34 35 35 35 35 35 34 34 35 35 36 35 35 35 35 35 35 35 35 35
Wind_Direction
216 213 218 227 223 222 219 220 230 238 242 242 249 254 255 250 251 252 253 259 264 269 276 282 287 287 288 293 298 303 307 310 310 313 314 316 318 323 326 326 327 327 326 326
217 213 214 222 223 224 224 221 224 235 238 240 246 249 254 250 251 254 254 256 260 265 270 274 281 282 284 288 293 295 298 303 306 309 310 312 314 318 321 322 322 324 324 324
220 219 220 220 220 223 225 226 226 232 233 235 241 247 253 251 249 251 251 253 257 263 267 270 275 277 280 284 289 291 294 297 303 307 307 308 311 313 316 318 318 319 319 319
219 218 222 219 219 222 223 225 229 233 235 235 239 247 253 254 252 252 254 254 254 256 261 267 271 275 276 280 283 287 292 295 299 303 306 308 309 310 314 314 314 315 317 318
219 221 226 225 220 220 223 225 230 235 236 236 240 245 249 250 252 253 253 252 253 255 259 264 266 269 272 276 280 282 286 290 294 297 302 304 306 309 312 312 310 310 311 313
219 221 225 227 225 221 226 230 229 233 236 237 237 241 246 248 250 252 251 251 252 255 258 261 263 266 270 275 278 280 282 286 289 293 296 300 303 307 307 309 309 308 308 310
221 224 228 225 225 225 227 231 231 232 235 237 239 238 243 249 252 253 253 254 254 255 259 260 262 266 270 274 277 279 283 287 289 292 294 297 300 303 305 307 309 309 310 309
222 224 230 228 226 227 229 233 233 233 235 236 237 238 239 244 249 252 254 255 255 257 260 262 264 267 270 272 275 278 282 286 289 292 293 295 297 299 302 304 305 306 308 308
223 225 227 227 228 230 232 233 235 236 237 238 237 239 241 242 245 248 251 253 255 256 260 261 263 265 269 272 274 277 280 284 286 289 290 292 294 296 299 302 303 304 305 305
225 227 227 227 229 231 232 233 233 235 236 237 239 241 244 245 245 246 250 253 255 257 260 263 264 265 268 270 273 276 279 281 283 284 287 291 294 295 296 297 299 300 301 303
226 227 229 228 229 231 233 235 235 236 238 239 241 243 246 249 248 248 251 255 256 258 261 262 263 265 266 268 271 273 277 279 281 283 285 288 291 293 294 297 297 298 299 300
226 226 228 229 231 234 234 235 236 237 239 240 241 242 245 249 249 249 251 254 256 258 260 262 263 265 266 267 269 271 274 277 280 282 285 286 289 291 292 293 294 296 297 299
229 230 231 232 232 235 236 236 238 240 241 242 242 244 244 247 249 250 252 253 256 258 260 261 264 264 264 266 268 271 273 276 278 280 283 284 287 290 290 291 291 293 295 296
226 229 231 233 234 235 237 239 242 243 244 246 246 248 248 250 251 252 252 255 257 258 259 261 262 263 264 266 268 269 271 273 276 278 280 282 284 286 288 289 290 290 292 293
225 229 231 234 235 235 239 241 243 245 246 247 247 249 250 250 251 253 254 256 258 260 261 261 262 263 264 265 267 269 271 273 275 277 280 282 284 285 287 287 288 289 290 290
225 227 229 233 234 237 240 241 243 245 245 246 246 248 249 251 253 254 255 257 259 261 262 263 263 262 263 265 267 269 271 273 274 276 278 280 282 283 285 286 287 287 288 289
227 227 228 231 233 236 240 241 243 244 244 244 246 248 250 252 254 256 256 257 260 262 263 265 265 265 266 267 267 269 271 272 274 275 276 278 280 281 283 284 285 285 287 289
229 230 232 233 235 237 240 242 245 249 249 248 248 248 250 254 255 256 257 258 261 263 266 268 268 267 268 270 271 271 272 273 274 274 275 277 278 280 282 283 283 285 287 287
230 232 232 232 234 238 241 244 245 246 247 247 249 251 251 252 255 256 257 258 261 264 267 269 269 270 271 272 273 274 274 275 274 275 276 276 277 278 280 282 283 285 286 287
229 232 233 234 237 241 244 245 247 247 248 249 252 253 252 252 254 256 257 259 261 262 265 268 270 271 273 274 276 276 276 277 277 277 276 276 277 278 279 282 284 285 287 289
230 233 235 238 240 242 244 245 246 247 250 253 255 254 254 255 256 258 259 260 261 263 265 268 270 272 273 274 276 277 277 277 277 277 276 276 276 277 279 280 282 285 287 289
233 235 236 238 240 243 245 245 246 249 252 254 255 255 255 257 258 259 260 262 263 266 268 270 272 273 274 276 276 276 277 277 276 277 277 277 277 278 279 280 283 286 287 288
236 238 239 240 242 244 246 247 249 251 252 254 255 255 257 258 261 263 265 265 266 268 270 273 274 275 276 277 277 276 276 276 276 277 279 279 278 279 281 284 286 286 286 287
237 239 239 240 242 243 245 248 250 251 253 256 256 257 259 260 261 263 266 267 268 270 272 274 276 277 277 278 278 277 277 276 277 279 280 279 279 280 282 285 286 287 287 287
237 238 239 240 240 242 244 247 249 252 255 256 258 260 261 262 264 265 267 268 269 271 274 276 277 277 278 277 278 279 278 279 281 281 280 281 281 282 284 286 286 288 289 288
234 236 238 239 240 243 245 247 250 253 255 257 259 261 263 264 265 266 269 270 272 273 274 275 277 277 278 279 280 280 280 280 281 281 282 282 283 283 284 287 286 287 289 290
233 236 238 240 241 243 246 251 253 255 256 257 259 261 263 264 265 266 269 272 274 276 276 277 277 278 278 280 281 280 281 282 283 284 283 283 284 284 285 287 289 291 291 291
Height
5852 5859 5865 5869 5873 5877 5881 5885 5888 5889 5891 5892 5893 5894 5894 5895 5897 5898 5899 5900 5900 5901 5900 5900 5901 5901 5901 5901 5901 5900 5900 5899 5898 5897 5896 5895 5894 5893 5892 5890 5889 5887 5886 5884
5845 5852 5857 5863 5867 5872 5876 5879 5882 5884 5887 5888 5889 5890 5890 5891 5892 5894 5895 5897 5897 5898 5898 5898 5899 5899 5899 5899 5899 5898 5898 5897 5896 5896 5895 5894 5893 5891 5890 5889 5887 5885 5884 5882
5839 5846 5849 5854 5861 5866 5870 5874 5876 5878 5882 5883 5884 5885 5886 5888 5889 5890 5891 5893 5894 5895 5895 5896 5896 5897 5897 5897 5896 5896 5895 5895 5894 5894 5893 5892 5891 5889 5888 5886 5885 5883 5881 5879
5833 5840 5842 5850 5856 5860 5863 5867 5869 5872 5875 5877 5879 5880 5882 5883 5884 5886 5887 5888 5890 5891 5891 5892 5893 5893 5894 5894 5894 5893 5893 5892 5892 5891 5890 5889 5888 5886 5885 5883 5882 5880 5878 5876
5826 5831 5836 5842 5848 5852 5856 5860 5863 5866 5868 5870 5874 5875 5876 5877 5879 5881 5882 5884 5885 5886 5888 5888 5889 5890 5890 5890 5890 5890 5889 5889 5888 5888 5887 5886 5884 5883 5881 5880 5878 5876 5874 5873
5819 5824 5829 5836 5841 5846 5850 5852 5857 5859 5862 5865 5868 5869 5870 5872 5874 5875 5876 5879 5880 5882 5883 5884 5885 5886 5886 5886 5886 5886 5886 5885 5885 5884 5883 5882 5880 5879 5877 5875 5873 5872 5870 5868
5811 5817 5822 5829 5833 5838 5843 5846 5850 5853 5856 5858 5861 5862 5864 5865 5868 5869 5870 5872 5874 5876 5877 5879 5880 5880 5881 5881 5881 5881 5881 5881 5880 5879 5878 5877 5875 5874 5872 5871 5869 5867 5866 5864
5805 5811 5817 5820 5825 5829 5833 5838 5841 5845 5848 5851 5853 5855 5857 5858 5860 5862 5864 5866 5868 5870 5872 5873 5874 5875 5876 5876 5876 5876 5876 5875 5875 5874 5873 5872 5871 5869 5867 5865 5864 5862 5860 5858
5797 5803 5808 5812 5816 5820 5825 5829 5833 5837 5840 5843 5846 5847 5850 5852 5854 5855 5857 5859 5861 5863 5865 5867 5868 5869 5869 5870 5870 5870 5870 5870 5869 5868 5867 5866 5865 5863 5861 5859 5857 5855 5853 5852
5789 5794 5799 5804 5808 5813 5817 5821 5825 5828 5831 5834 5837 5839 5841 5844 5846 5848 5850 5852 5855 5857 5858 5860 5861 5862 5863 5863 5863 5863 5863 5863 5862 5861 5860 5859 5858 5856 5855 5853 5851 5849 5847 5845
5780 5786 5790 5795 5800 5804 5809 5813 5817 5820 5823 5826 5829 5831 5833 5835 5838 5841 5843 5845 5847 5849 5851 5852 5853 5854 5855 5855 5856 5856 5856 5855 5855 5854 5853 5852 5850 5849 5847 5846 5844 5842 5840 5838
5772 5778 5783 5788 5792 5796 5800 5804 5808 5811 5814 5818 5820 5822 5825 5827 5830 5832 5835 5837 5839 5841 5842 5844 5845 5846 5847 5847 5848 5848 5847 5847 5847 5846 5845 5844 5843 5841 5839 5838 5836 5834 5832 5830
5766 5771 5775 5780 5784 5788 5791 5795 5799 5803 5806 5809 5811 5813 5816 5819 5822 5824 5826 5829 5830 5832 5833 5835 5836 5837 5838 5838 5839 5839 5838 5838 5838 5837 5837 5836 5834 5832 5831 5830 5828 5826 5824 5822
5759 5764 5768 5773 5776 5780 5784 5788 5791 5794 5798 5800 5802 5804 5807 5810 5813 5815 5817 5820 5821 5822 5824 5825 5827 5828 5829 5829 5829 5829 5829 5829 5829 5828 5827 5826 5825 5824 5822 5821 5819 5817 5815 5813
5752 5757 5761 5766 5769 5773 5776 5780 5783 5786 5789 5791 5793 5796 5798 5801 5804 5806 5809 5811 5812 5813 5815 5816 5817 5818 5819 5819 5820 5820 5820 5820 5819 5818 5817 5816 5815 5814 5812 5811 5809 5807 5805 5803
5745 5750 5754 5758 5762 5766 5769 5772 5775 5778 5780 5782 5784 5786 5789 5793 5796 5798 5800 5802 5803 5805 5805 5806 5807 5808 5808 5809 5809 5809 5809 5809 5809 5808 5807 5806 5805 5803 5802 5800 5799 5797 5795 5793
5739 5744 5748 5751 5756 5759 5761 5764 5766 5767 5770 5773 5777 5780 5783 5785 5788 5790 5791 5793 5794 5795 5796 5796 5797 5798 5798 5798 5798 5798 5798 5798 5797 5796 5795 5794 5793 5792 5791 5789 5787 5785 5784 5783
5734 5737 5741 5745 5749 5752 5754 5756 5758 5760 5762 5766 5769 5772 5775 5777 5779 5781 5782 5784 5785 5786 5786 5787 5787 5787 5787 5786 5786 5786 5785 5785 5784 5784 5783 5783 5782 5781 5779 5778 5776 5774 5773 5771
5727 5731 5734 5738 5741 5744 5747 5749 5751 5753 5755 5758 5761 5763 5766 5768 5770 5772 5773 5774 5776 5776 5777 5777 5777 5777 5776 5776 5775 5775 5774 5774 5773 5772 5771 5771 5770 5769 5768 5767 5765 5763 5761 5760
5721 5724 5727 5731 5734 5738 5740 5742 5744 5746 5749 5751 5753 5755 5757 5759 5761 5763 5764 5765 5766 5767 5767 5767 5766 5766 5766 5765 5765 5764 5763 5762 5761 5760 5759 5758 5758 5757 5756 5755 5754 5752 5750 5748
5714 5718 5721 5724 5727 5730 5733 5735 5737 5739 5742 5744 5746 5747 5749 5751 5752 5754 5755 5755 5756 5757 5757 5757 5756 5756 5755 5755 5754 5753 5752 5751 5750 5749 5747 5747 5747 5746 5744 5743 5742 5740 5739 5737
5708 5711 5714 5718 5721 5724 5726 5728 5730 5732 5734 5736 5738 5740 5741 5742 5744 5745 5746 5747 5747 5747 5747 5747 5746 5745 5745 5744 5743 5742 5741 5739 5739 5738 5736 5736 5735 5733 5732 5731 5730 5728 5727 5724
5701 5705 5708 5711 5714 5716 5718 5721 5723 5725 5727 5729 5730 5732 5733 5734 5735 5736 5737 5738 5738 5737 5737 5736 5736 5735 5734 5733 5732 5731 5729 5728 5727 5726 5725 5724 5723 5723 5721 5719 5718 5716 5714 5712
5696 5699 5702 5704 5706 5709 5711 5713 5715 5717 5719 5720 5722 5723 5724 5725 5726 5726 5727 5728 5728 5728 5727 5727 5726 5725 5724 5723 5722 5720 5719 5717 5717 5715 5714 5713 5712 5711 5710 5708 5706 5703 5701 5699
5690 5693 5695 5697 5699 5702 5704 5705 5707 5709 5711 5712 5714 5714 5715 5716 5716 5717 5718 5718 5718 5718 5717 5717 5716 5715 5714 5713 5711 5710 5708 5706 5705 5704 5704 5702 5701 5700 5699 5697 5694 5691 5689 5687
5685 5687 5689 5691 5693 5695 5697 5698 5700 5701 5702 5704 5705 5706 5706 5707 5707 5708 5708 5709 5709 5708 5707 5706 5705 5704 5703 5702 5701 5699 5698 5697 5696 5694 5693 5692 5690 5689 5687 5685 5683 5681 5679 5677
5680 5682 5683 5685 5687 5689 5690 5691 5692 5693 5694 5696 5697 5698 5698 5699 5699 5699 5699 5699 5699 5698 5697 5697 5696 5694 5693 5692 5691 5689 5688 5687 5686 5684 5683 5681 5679 5677 5676 5674 5672 5670 5668 5666